Location: Shenandoah County Park
(38.9356°N, 78.4524°W)
Time: 04:25:54
(UTC-04:00)

Transit 2A - Pass Details

Date: 17 June 2024
Orbit: 591 x 960 km, 66.7° (Epoch: 23 July)

Event Time Altitude Azimuth Distance (km) Brightness Sun altitude
Rises 01:08:13 0° 341° (NNW) 3,503 10.5 -27.7°
Reaches altitude 10° 01:11:16 10° 356° (N) 2,610 9.7 -27.7°
Maximum altitude 01:16:00 23° 47° (NE) 1,907 8.4 -27.7°
Drops below altitude 10° 01:20:51 10° 97° (E) 2,688 8.7 -27.7°
Enters shadow 01:21:47 - 103° (ESE) 2,947 8.9 -27.6°
